GPS BIIF-12 (PRN 32)

Last updated on Wed Sep 09 2026 00:03:22 GMT+0000 (Coordinated Universal Time)

1 41328U 16007A 26250.63107316 .00000024 00000+0 00000+0 0 9998 2 41328 55.5798 86.1906 0097407 247.3132 111.7272 2.00573253 77493
UTC large
Height (km)
Speed (km/s)
/
Latitude / Longitude
Inclination (degrees)
Orbital Period (minutes)
Azimuth
Elevation
Range (km)
Doppler Factor

Next 0 passes for location: London (51.5072 / 0.1276)

No passes found over London.
GPS BIIF-12 (PRN 32)